TimeEST,TemperatureF,Dew PointF,Humidity,Sea Level PressureIn,VisibilityMPH,Wind Direction,Wind SpeedMPH,Gust SpeedMPH,PrecipitationIn,Events,Conditions,WindDirDegrees,DateUTC
12:00 AM,26.6,23.0,86,30.24,10.0,Calm,Calm,-,N/A,,Clear,0,2013-02-26 05:00:00
12:21 AM,26.6,23.0,86,30.24,10.0,Calm,Calm,-,N/A,,Clear,0,2013-02-26 05:21:00
12:39 AM,26.6,23.0,86,30.24,10.0,Calm,Calm,-,N/A,,Clear,0,2013-02-26 05:39:00
1:00 AM,24.8,21.2,86,30.24,10.0,Calm,Calm,-,N/A,,Clear,0,2013-02-26 06:00:00
1:21 AM,26.6,23.0,86,30.25,10.0,Calm,Calm,-,N/A,,Clear,0,2013-02-26 06:21:00
1:39 AM,26.6,23.0,86,30.25,10.0,Calm,Calm,-,N/A,,Clear,0,2013-02-26 06:39:00
2:00 AM,26.6,23.0,86,30.25,10.0,Calm,Calm,-,N/A,,Clear,0,2013-02-26 07:00:00
2:21 AM,26.6,23.0,86,30.26,10.0,Calm,Calm,-,N/A,,Clear,0,2013-02-26 07:21:00
2:39 AM,26.6,23.0,86,30.24,10.0,Calm,Calm,-,N/A,,Clear,0,2013-02-26 07:39:00
3:00 AM,26.6,23.0,86,30.23,10.0,Calm,Calm,-,N/A,,Clear,0,2013-02-26 08:00:00
3:21 AM,26.6,23.0,86,30.24,10.0,Calm,Calm,-,N/A,,Clear,0,2013-02-26 08:21:00
3:39 AM,26.6,23.0,86,30.22,10.0,Calm,Calm,-,N/A,,Clear,0,2013-02-26 08:39:00
4:00 AM,26.6,23.0,86,30.22,10.0,Calm,Calm,-,N/A,,Clear,0,2013-02-26 09:00:00
4:21 AM,26.6,23.0,86,30.22,10.0,Calm,Calm,-,N/A,,Clear,0,2013-02-26 09:21:00
5:00 AM,28.4,26.6,93,30.19,10.0,Calm,Calm,-,N/A,,Clear,0,2013-02-26 10:00:00
5:21 AM,28.4,24.8,86,30.21,7.0,Calm,Calm,-,N/A,,Clear,0,2013-02-26 10:21:00
5:39 AM,26.6,24.8,93,30.21,10.0,Calm,Calm,-,N/A,,Clear,0,2013-02-26 10:39:00
6:00 AM,26.6,24.8,93,30.22,10.0,Calm,Calm,-,N/A,,Clear,0,2013-02-26 11:00:00
6:21 AM,26.6,24.8,93,30.23,10.0,Calm,Calm,-,N/A,,Clear,0,2013-02-26 11:21:00
7:00 AM,28.4,26.6,93,30.22,7.0,Calm,Calm,-,N/A,,Clear,0,2013-02-26 12:00:00
7:21 AM,30.2,28.4,93,30.21,5.0,ENE,3.5,-,N/A,,Clear,60,2013-02-26 12:21:00
7:42 AM,32.0,30.2,93,30.22,4.0,ENE,3.5,-,N/A,,Clear,70,2013-02-26 12:42:00
8:00 AM,32.0,30.2,93,30.22,5.0,ENE,3.5,-,N/A,,Clear,60,2013-02-26 13:00:00
8:21 AM,32.0,30.2,93,30.21,5.0,ENE,4.6,-,N/A,,Clear,60,2013-02-26 13:21:00
8:42 AM,33.8,30.2,87,30.21,5.0,East,4.6,-,N/A,,Clear,80,2013-02-26 13:42:00
9:00 AM,33.8,32.0,93,30.22,7.0,East,5.8,-,N/A,,Clear,80,2013-02-26 14:00:00
9:21 AM,33.8,32.0,93,30.22,7.0,East,5.8,-,N/A,,Clear,80,2013-02-26 14:21:00
10:00 AM,37.4,30.2,75,30.22,10.0,East,8.1,-,N/A,,Clear,90,2013-02-26 15:00:00
10:21 AM,37.4,30.2,75,30.20,10.0,East,9.2,-,N/A,,Clear,90,2013-02-26 15:21:00
10:42 AM,37.4,30.2,75,30.19,10.0,East,11.5,17.3,N/A,,Scattered Clouds,80,2013-02-26 15:42:00
11:00 AM,39.2,30.2,70,30.19,10.0,East,10.4,17.3,N/A,,Mostly Cloudy,90,2013-02-26 16:00:00
11:21 AM,39.2,30.2,70,30.18,10.0,East,10.4,-,N/A,,Overcast,90,2013-02-26 16:21:00
11:42 AM,39.2,30.2,70,30.18,10.0,East,8.1,-,N/A,,Overcast,100,2013-02-26 16:42:00
12:00 PM,39.2,30.2,70,30.16,10.0,East,8.1,-,N/A,,Overcast,80,2013-02-26 17:00:00
12:21 PM,39.2,32.0,75,30.14,10.0,East,10.4,-,N/A,,Overcast,80,2013-02-26 17:21:00
12:42 PM,37.4,32.0,81,30.13,10.0,ENE,5.8,-,N/A,,Overcast,60,2013-02-26 17:42:00
1:00 PM,37.4,33.8,87,30.13,7.0,ENE,5.8,-,N/A,,Overcast,70,2013-02-26 18:00:00
1:21 PM,37.4,33.8,87,30.11,7.0,ENE,6.9,-,N/A,,Overcast,60,2013-02-26 18:21:00
2:00 PM,39.2,35.6,87,30.08,7.0,ENE,5.8,-,N/A,,Overcast,60,2013-02-26 19:00:00
2:21 PM,39.2,35.6,87,30.06,5.0,ENE,5.8,-,N/A,,Overcast,70,2013-02-26 19:21:00
2:42 PM,39.2,35.6,87,30.04,4.0,East,8.1,-,N/A,,Overcast,80,2013-02-26 19:42:00
3:03 PM,41.0,37.4,87,30.02,7.0,East,11.5,-,N/A,,Overcast,80,2013-02-26 20:03:00
3:21 PM,41.0,37.4,87,30.01,7.0,ENE,9.2,-,N/A,,Overcast,70,2013-02-26 20:21:00
3:42 PM,41.0,37.4,87,29.99,7.0,East,12.7,20.7,N/A,,Overcast,90,2013-02-26 20:42:00
4:03 PM,41.0,37.4,87,29.95,7.0,East,13.8,24.2,N/A,,Overcast,90,2013-02-26 21:03:00
4:21 PM,41.0,37.4,87,29.94,7.0,East,18.4,24.2,N/A,,Overcast,90,2013-02-26 21:21:00
4:42 PM,41.0,37.4,87,29.93,10.0,East,20.7,25.3,N/A,,Overcast,90,2013-02-26 21:42:00
5:03 PM,41.0,37.4,87,29.90,10.0,East,19.6,29.9,N/A,,Overcast,90,2013-02-26 22:03:00
5:21 PM,41.0,37.4,87,29.88,7.0,East,20.7,33.4,N/A,,Overcast,90,2013-02-26 22:21:00
5:42 PM,41.0,35.6,81,29.87,10.0,East,23.0,28.8,N/A,,Overcast,90,2013-02-26 22:42:00
6:03 PM,41.0,37.4,87,29.84,10.0,East,23.0,34.5,N/A,,Overcast,80,2013-02-26 23:03:00
6:09 PM,41.0,37.4,87,29.84,10.0,East,19.6,34.5,N/A,,Overcast,80,2013-02-26 23:09:00
7:21 PM,-9999,-9999,N/A,29.80,-9999.0,East,19.6,-,N/A,,Unknown,90,2013-02-27 00:21:00
7:42 PM,41.0,39.2,93,29.79,5.0,East,20.7,28.8,N/A,,Unknown,80,2013-02-27 00:42:00
8:03 PM,41.0,39.2,93,29.76,4.0,East,18.4,28.8,N/A,,Overcast,80,2013-02-27 01:03:00
8:21 PM,41.0,39.2,93,29.75,5.0,East,21.9,31.1,N/A,,Overcast,80,2013-02-27 01:21:00
8:42 PM,41.0,39.2,93,29.74,4.0,East,18.4,24.2,N/A,,Mostly Cloudy,80,2013-02-27 01:42:00
9:03 PM,42.8,39.2,87,29.74,5.0,East,19.6,26.5,N/A,,Mostly Cloudy,80,2013-02-27 02:03:00
9:21 PM,42.8,39.2,87,29.74,7.0,East,13.8,20.7,N/A,,Overcast,80,2013-02-27 02:21:00
9:42 PM,42.8,41.0,93,29.73,5.0,ENE,10.4,19.6,N/A,,Overcast,70,2013-02-27 02:42:00
10:03 PM,42.8,41.0,93,29.73,7.0,ENE,5.8,16.1,N/A,,Overcast,60,2013-02-27 03:03:00
10:21 PM,42.8,41.0,93,29.71,7.0,NNE,5.8,-,N/A,,Overcast,20,2013-02-27 03:21:00
10:42 PM,42.8,41.0,93,29.68,10.0,NE,6.9,-,N/A,,Overcast,50,2013-02-27 03:42:00
11:03 PM,42.8,41.0,93,29.67,5.0,NE,6.9,-,N/A,,Overcast,50,2013-02-27 04:03:00
11:24 PM,42.8,41.0,93,29.66,7.0,NE,4.6,-,N/A,,Overcast,40,2013-02-27 04:24:00
11:42 PM,42.8,41.0,93,29.64,5.0,NNE,4.6,-,N/A,,Overcast,20,2013-02-27 04:42:00